Regional Weather Roundup
Issued by NWS

Current Version | Previous Version | Text Only | Print | Product List | Glossary On
Versions: 1 2 3 4 5 6 7 8 9 10 11 12 13 14 15 16 17 18 19 20 21 22 23 24 25 26 27 28 29 30 31 32 33 34 35 36 37 38 39 40 41 42 43 44 45 46 47 48 49 50
000
ASUS44 KFWD 050515
RWRTX
NORTH TEXAS HOURLY WEATHER ROUNDUP
NATIONAL WEATHER SERVICE FORT WORTH TX
1200 AM CDT SAT SEP 05 2015

NOTE: "FAIR" INDICATES FEW OR NO CLOUDS BELOW 12,000 FEET WITH NO
SIGNIFICANT WEATHER AND/OR OBSTRUCTIONS TO VISIBILITY.

TXZ118-119-050600-
DALLAS/FORT WORTH METROPLEX

CITY           SKY/WX    TMP DP  RH WIND       PRES   REMARKS
DFW AIRPORT    PTCLDY    86  69  56 SE14      29.93S HX  90
DALLAS LOVE    PTCLDY    87  70  56 SE15      29.93S HX  92
FTW MEACHAM    CLEAR     87  69  54 SE14      29.92F HX  91
DAL-EXECUTIVE  CLEAR     84  70  62 SE7       29.93F
FTW-ALLIANCE   PTCLDY    85  69  58 SE10      29.93S
FTW-NAS-JRB    CLEAR     87  69  54 SE10      29.93S HX  91
FTW-SPINKS     CLEAR     83  69  62 S8        29.95S
ARLINGTON      CLEAR     86  69  56 SE10      29.93S HX  90
GRAND PRAIRIE  CLEAR     85  71  63 SE7       29.94F HX  90
ADDISON        CLEAR     85  72  63 SE8       29.95S HX  91
MESQUITE       CLEAR     82  69  64 SE7       29.94S
LANCASTER      CLEAR     83  68  60 SE6       29.95S
$$

TXZ091>094-102>105-117-120-121-131>134-050600-
NORTH CENTRAL TEXAS

CITY           SKY/WX    TMP DP  RH WIND       PRES   REMARKS
SHRMAN/DENISON PTCLDY    83  71  68 SE9       29.95F
GAINESVILLE    CLEAR     80  69  68 SE5       29.96S
BOWIE          CLEAR     79  67  66 SE3       29.95S
BRIDGEPORT     CLEAR     79  69  70 SE6       29.95S
DECATUR        CLEAR     82  66  57 SE8       29.95S
DENTON         CLEAR     83  70  64 SE8       29.93S
MCKINNEY       CLEAR     83  71  67 SE7       29.94S
GREENVILLE     CLEAR     81  68  65 SE5       29.94F
ROCKWALL       CLEAR     82  71  69 SE8       29.93S
TERRELL        CLEAR     82  71  69 SE9       29.94F
WAXAHACHIE     CLEAR     83  72  69 SE8       29.95F
CLEBURNE       CLEAR     82  73  74 SE9       29.96S
GRANBURY       CLEAR     84  68  58 SE3       29.94S
$$

TXZ083>090-098>101-113>116-127>130-139>142-154-155-050600-
WESTERN NORTH TEXAS

CITY           SKY/WX    TMP DP  RH WIND       PRES   REMARKS
WICHITA FALLS  CLEAR     79  67  66 SE8       29.93S
WF-KICKAPOO    CLEAR     82  67  59 SE7       29.94F
VERNON         CLEAR     84  60  43 SE10      29.94S
ABILENE        CLEAR     82  65  56 SE10      29.96S
ABILENE-DYESS  CLEAR     82  66  57 SE8       29.94S
BRECKENRIDGE   CLEAR     85  64  48 SE9       29.93S
GRAHAM         CLEAR     82  67  60 E6        29.93S
MINERAL WELLS  CLEAR     80  67  64 SE6       29.93R
STEPHENVILLE   CLEAR     79  67  66 S3        29.98F
COMANCHE       CLEAR     81  70  68 S8        29.96S
BROWNWOOD      PTCLDY    82  68  61 SE7       29.96R
COLEMAN        CLEAR     84  68  57 SE15      29.96S
BRADY          CLEAR     82  66  57 SE9       29.97S
$$

TXZ143>147-156>162-174-175-050600-
CENTRAL TEXAS

CITY           SKY/WX    TMP DP  RH WIND       PRES   REMARKS
WACO           CLEAR     83  70  64 SE10      29.93F
WACO-MCGREGOR  CLEAR     82  72  71 SE13      29.94F
HILLSBORO      CLEAR     82  69  64 S8        29.95S
CORSICANA      CLEAR     82  72  71 S6        29.96S
MEXIA          CLEAR     79  72  78 SE15      29.94F
HEARNE         CLEAR     79  73  84 SE5       29.96S
CAMERON        CLEAR     81  74  80 S5        29.94S
TEMPLE         PTCLDY    81  70  69 SE13      29.95S
KILLEEN        CLEAR     79  72  78 S9        29.95S
KILLEEN-SKYLRK CLEAR     81  70  69 S13       29.94F
FORT HOOD      CLEAR     80  72  76 SE8       29.93F
GATESVILLE     CLEAR     81  70  69 CALM      29.97S
HAMILTON       CLEAR     81  68  64 S10       29.97S
$$

TXZ095>097-106>112-122>126-135>138-148>153-164>167-050600-
EAST TEXAS

CITY           SKY/WX    TMP DP  RH WIND       PRES   REMARKS
PARIS          CLEAR     79  64  61 E7        29.96S
SULPHUR SPRNGS CLEAR     83  69  62 SE7       29.97S
MOUNT PLEASANT CLEAR     78  69  73 CALM      29.97R
GILMER         CLEAR     80  72  75 S3        29.96S
MINEOLA        CLEAR     81  73  78 CALM      29.96S
TYLER          CLEAR     82  71  69 S7        29.95F
LONGVIEW       CLEAR     80  73  79 S6        29.95S
MARSHALL       CLEAR     78  75  90 CALM      29.98S
ATHENS         CLEAR     75  70  83 SE3       29.94F
PALESTINE      CLEAR     80  72  76 SE3       29.97S
JACKSONVILLE   CLEAR     81  72  73 S7        29.99F
HENDERSON      CLEAR     78  71  79 CALM      29.97S
CENTER         FAIR      78  74  87 CALM      29.96F
NACOGDOCHES    CLEAR     79  73  83 SE3       29.96F
LUFKIN         CLEAR     77  73  87 CALM      29.96F
$$

SUPPLEMENTAL OBSERVATIONS (CENTRAL)

CITY           SKY/WX    TMP DP  RH WIND       PRES   REMARKS
LAKE TEXOMA      N/A     81  70  69 E2          N/A
CADDO GRASSLND   N/A     77  68  73 S1          N/A
PAT MAYSE LAKE   N/A     82  68  61 E7          N/A
MCGREGOR         N/A     81  70  69 S10         N/A
TEMPLE           N/A     81  70  69 SE6         N/A
$$

SUPPLEMENTAL OBSERVATIONS (WEST)

CITY           SKY/WX    TMP DP  RH WIND       PRES   REMARKS
MILLERS CREEK    N/A     82  64  54 SE10        N/A
POSSUM KINGDOM   N/A     82  63  51 SE7         N/A
LBJ GRASSLAND    N/A     82  66  57 SE6         N/A
GRANBURY         N/A     84  68  58 SE6         N/A
HAMBY            N/A     81  64  57 SE7         N/A
IVIE RESERVOIR   N/A     82  61  47 SE9         N/A
COLORADO BEND    N/A     81  68  65 SW10        N/A
$$

SUPPLEMENTAL OBSERVATIONS (EAST)

CITY           SKY/WX    TMP DP  RH WIND       PRES   REMARKS
CLARKSVILLE      N/A     81  70  69 SE1         N/A
TEXARKANA        N/A     75  73  94 CALM        N/A
LINDEN           N/A     77  72  83 E2          N/A
CADDO LAKE       N/A     73  72  94 CALM        N/A
GILMER           N/A     77  72  83 CALM        N/A
HENDERSON        N/A     79  70  73 S3          N/A
LUFKIN           N/A     77  72  83 MISG        N/A
N SABINE NF      N/A     75  72  88 MISG        N/A
S SABINE NF      N/A     75  72  88 CALM        N/A
$$

SUPPLEMENTAL OBSERVATIONS ARE A COLLECTION OF AUTOMATED INSTRUMENTS
THAT ARE MAINTAINED BY A VARIETY OF FEDERAL AND STATE AGENCIES.
CERTAIN ELEMENTS...SUCH AS HUMIDITY VALUES AND SUSTAINED WIND
SPEEDS...MAY BE APPROXIMATED.



USA.gov is the U.S. government's official web portal to all federal, state and local government web resources and services.